Location: *
(40.7873°S, 98.7174°E)
Time: 10:59:38
(UTC+00:00)

N. Korean satellite - Visible Passes

Search period start: 12 August 2022 00:00
Search period end: 22 August 2022 00:00
Orbit: 433 x 470 km, 97.3° (Epoch: 11 August)

Date Brightness Start Highest point End Pass type
(mag) Time Alt. Az. Time Alt. Az. Time Alt. Az.
12 Aug 9.5 11:45:30 10° SW 11:47:10 13° WSW 11:48:50 10° W visible
13 Aug 8.2 11:09:51 10° S 11:12:58 34° WSW 11:16:01 10° NW visible
15 Aug 9.4 11:34:16 10° SSW 11:36:35 18° WSW 11:38:54 10° WNW visible
18 Aug 8.9 11:23:02 10° SSW 11:25:48 24° WSW 11:28:32 10° NW visible
20 Aug 9.6 11:47:37 10° SW 11:49:09 13° WSW 11:50:41 10° W visible
